Погода Охоны

Погода Охоны : погода сейчас, прогноз погоды и архив. Всё, что Вы хотите узнать о погоде Охоны!

Поиск расширенной информации на нашем сайте:

Другие новости

Новости СМИ2

Главная страница сайта

Новости сайта

03.07.2017

Напоминаем, что на нашем специализированном сайте Метеоцентр.Азия вы можете получить высокодетализированные автоматические прогнозы погоды по пунктам России, СНГ и мира в авиационном формате (включающие направление и скорость ветра, видимость, явления погоды, количество и форму облачности, нижнюю и верхнюю границу облачности).


Погода Охоны - сегодня

Время (UTC), дата Ветер
(°,м/с) 
Видим.   Явления Облачность Т
(°С)
Тd
(°С)
f(%) Тe
(°С)
Pmin
(гПа)
dP
(гПа)
Po
(мм)
O2
(г/м3)
Тmin Tmax R s Состояние
почвы
09 19.09.17 250 (З) н/о    н/о 
+13.4 +11.4 88 +16  999.4  3.1  737  281           
12 19.09.17 250 (З) 5{12}  н/о    н/о 
+12 +10.8 92 +14  1003.7  4.1  740  283           
15 19.09.17 260 (З) 5{12}  н/о    н/о 
+11 +8.8 86 +10  1008.4  4.5  743  286           
18 19.09.17 270 (З) 4{11}  20000 м    1/1 600 м 
[Sc]
+9.3 +7.8 90 +8  1012.4  3.8  746  289    +14.2     
21 19.09.17 250 (З) н/о    н/о 
+8.8 +7.5 92 +9  1014.7  2.2  748  291           
00 20.09.17 240 (ЮЗ) н/о    н/о 
+9.2 +8.4 95 +9  1016.4  1.7  749  290           
03 20.09.17 240 (ЮЗ) н/о    н/о 
+9.8 +9.2 96 +11  1017.7  1.3  750  290  +8.3         
06 20.09.17 250 (З) 20000 м    8/8 330 м средняя 
[Sc diur, vesp|Ac cuf]
+11.3 +9.2 87 +12  1019.7  752  289  +8.3        влажная 
09 20.09.17 240 (ЮЗ) н/о    н/о 
+11.3 +9.2 87 +12  1021.8  753  290           
12 20.09.17 250 (З) н/о    н/о 
+13.2 +9.1 76 +14  1023  1.3  754  288           
15 20.09.17 тихо ()   н/о    н/о 
+12.3 +10.7 90 +14  1024  755  289           
18 20.09.17 тихо ()   20000 м    3/0 средняя 
[Ac trans]
+10.1 +9.6 97 +11  1025.3  1.1  756  292    +13.6       
21 20.09.17 тихо ()   н/о    н/о 
+8 +7.6 97 +8  1026.8  1.3  757  295           
00 21.09.17 тихо ()   н/о    н/о 
+8.3 +7.9 97 +8  1028  1.2  758  295           
03 21.09.17 тихо ()   н/о    н/о 
+7.5 +7.1 97 +8  1029.4  1.2  758  296  +7.5         
06 21.09.17 060 (СВ) 20000 м    9/1 600 м средняя, верхняя 
[Cu hum|Ac trans|Ci fib]
+10.7 +10.3 97 +13  1030.1  0.9  759  292  +7.2        влажная 
09 21.09.17 040 (СВ) н/о    н/о 
+11.8 +9.9 88 +13  1030.6  0.5  760  292           
12 21.09.17 090 (В) н/о    н/о 
+14.4 +8.6 68 +15  1030.5  760  289           
15 21.09.17 070 (В) н/о    н/о 
+11.8 +8.4 80 +12  1030.9  0.3  760  292           
18 21.09.17 080 (В) 20000 м    ясно 
+8.8 +6.8 87 +9  1032.6  1.4  761  296    +14.9       
21 21.09.17 060 (СВ) н/о    н/о 
+7 +6.3 95 +8  1033.8  762  298           
00 22.09.17 110 (В) н/о    н/о 
+8.2 +6.6 90 +8  1034.3  0.6  762  297           
03 22.09.17 120 (ЮВ) н/о    н/о 
+7.3 +5.9 91 +7  1035.4  763  298  +6.5         
06 22.09.17 120 (ЮВ) 20000 м    9/5 600 м верхняя 
[Cu hum|Ci fib]
+8.1 +5.3 82 +7  1035.7  0.3  763  298  +6.5        влажная 
09 22.09.17 120 (ЮВ) н/о    н/о 
+9.3 +5.3 76 +9  1035.8  0.1  763  297           
Время (UTC), дата Ветер
(°,м/с) 
Видим.   Явления Облачность Т
(°С)
Тd
(°С)
f(%) Тe
(°С)
Pmin
(гПа)
dP
(гПа)
Po
(мм)
O2
(г/м3)
Тmin Tmax R s Состояние
почвы

Для получения пояснительной информации подведите курсор к названию столбца.

ПОГОДА Охоны - архив

Всё, что Вы хотите узнать о погоде Охоны - удобно и подробно!

Выберите нужную дату (начиная с 1 января 2015* года) и нажмите кнопку "Найти".
Будут отображены архивные сводки погоды по пункту Охоны, начиная с указанной даты.


Отображать данные в формате CSV (для использования в таблицах Excel)


Внимание! Наш архив погоды предназначен исключительно для личного некоммерческого использования в познавательных целях. Если Вам необходимы официальные справки о состоянии погоды (для производственных, юридических, коммерческих и т.п. целей), обращайтесь в органы Росгидромета.

*Примечание: данная дата относится к архиву по метеостанциям СССР (Россия, СНГ, Балтия).
Архив по метеостанциям Зарубежной Европы и Азии (кроме Китая) хранится 10 дней, по другим регионам земного шара (Китай, Африка, Америка, Австралия, Океания) - 1 день.

Охоны - район местоположения метеостанции


Название, широта, долгота, высота метеостанции:
Охоны 58.6°ш. 35.6°д. 145 м над ур. моря [Российская Федерация]

Дополнительная информация

В oтличие oт бoльшинства пoгoдных сайтoв мы публикуем пoдрoбную метеoинфoрмацию в детальнoм прoфессиoнальнoм фoрмате.

Характеристики температуры и влажнoсти вoздуха измеряются на высoте 2 м в тени вдали oт зданий и деревьев.
Скoрoсть ветра измеряется на высoте 10 м (на урoвне рoста челoвека скoрoсть ветра ниже в 1.5-2 раза). Если метеoстанция нахoдится в гoрoде или в лесу, тo скoрoсть ветра занижена на 2-4 м/с пo сравнению с oткрытым местoм. Скoрoсть ветра над акватoриями крупных рек и oзёр, а также на вершинах хoлмoв на 2-5 м/с выше, чем в oбычных услoвиях.
Атмoсфернoе давление в разных тoчках местнoсти мoжет значительнo oтличаться oт давления на метеoстанции, в зависимoсти oт услoвий рельефа (при пoдъёме на 10 м давление пoнижается примернo на 1 мм рт.ст.).